2024/01/25 00:00:00,22.3,-1.6
2024/01/25 00:10:00,22.1,-2.1
2024/01/25 00:20:00,21.8,-1.8
2024/01/25 00:30:00,22.0,-2.0
2024/01/25 00:40:00,21.8,-2.0
2024/01/25 00:50:00,21.5,-2.5
2024/01/25 01:00:00,21.5,-2.2
2024/01/25 01:10:00,21.3,-2.1
2024/01/25 01:20:00,21.4,-2.5
2024/01/25 01:30:00,21.4,-2.7
2024/01/25 01:40:00,21.2,-3.1
2024/01/25 01:50:00,20.9,-3.7
2024/01/25 02:00:00,20.8,-4.3
2024/01/25 02:10:00,20.6,-4.1
2024/01/25 02:20:00,20.5,-4.0
2024/01/25 02:30:00,20.7,-3.4
2024/01/25 02:40:00,20.8,-3.1
2024/01/25 02:50:00,20.4,-2.9
2024/01/25 03:00:00,20.1,-3.3
2024/01/25 03:10:00,19.8,-3.0
2024/01/25 03:20:00,19.7,-2.8
2024/01/25 03:30:00,20.2,-2.4
2024/01/25 03:40:00,20.1,-2.4
2024/01/25 03:50:00,20.4,-2.4
2024/01/25 04:00:00,21.0,-2.4
2024/01/25 04:10:00,21.0,-2.4
2024/01/25 04:20:00,21.1,-2.7
2024/01/25 04:30:00,21.0,-2.3
2024/01/25 04:40:00,20.7,-2.2
2024/01/25 04:50:00,21.0,-2.0
2024/01/25 05:00:00,22.1,-1.8
2024/01/25 05:10:00,22.2,-2.0
2024/01/25 05:20:00,22.5,-1.9
2024/01/25 05:30:00,22.7,-1.9
2024/01/25 05:40:00,22.3,-1.8
2024/01/25 05:50:00,22.2,-1.8
2024/01/25 06:00:00,22.5,-1.7
2024/01/25 06:10:00,22.3,-1.7
2024/01/25 06:20:00,23.1,-1.6
2024/01/25 06:30:00,24.9,-1.8
2024/01/25 06:40:00,25.6,-1.5
2024/01/25 06:50:00,25.8,-1.4
2024/01/25 07:00:00,25.6,-1.7
2024/01/25 07:10:00,25.5,-1.2
2024/01/25 07:20:00,25.3,-2.0
2024/01/25 07:30:00,25.2,-2.4
2024/01/25 07:40:00,24.9,-2.1
2024/01/25 07:50:00,25.0,-2.0
2024/01/25 08:00:00,24.7,-2.1
2024/01/25 08:10:00,24.5,-2.3
2024/01/25 08:20:00,24.1,-2.3
2024/01/25 08:30:00,24.0,-2.0
2024/01/25 08:40:00,23.7,-1.9
2024/01/25 08:50:00,23.7,-1.3
2024/01/25 09:00:00,23.6,-0.9
2024/01/25 09:10:00,23.6,-0.6
2024/01/25 09:20:00,23.5,-0.2
2024/01/25 09:30:00,23.4, 1.0
2024/01/25 09:40:00,23.7, 2.5
2024/01/25 09:50:00,24.3, 3.1
2024/01/25 10:00:00,24.2, 3.2
2024/01/25 10:10:00,24.2, 3.3
2024/01/25 10:20:00,24.1, 4.1
2024/01/25 10:30:00,24.0, 3.9
2024/01/25 10:40:00,23.8, 5.5
2024/01/25 10:50:00,23.6, 5.4
2024/01/25 11:00:00,22.4, 5.4
2024/01/25 11:10:00,21.3, 5.1
2024/01/25 11:20:00,21.2, 4.5
2024/01/25 11:30:00,20.8, 6.3
2024/01/25 11:40:00,20.6, 6.1
2024/01/25 11:50:00,19.8, 7.4
2024/01/25 12:00:00,18.5, 5.5
2024/01/25 12:10:00,17.7, 4.3
2024/01/25 12:20:00,17.6, 4.5
2024/01/25 12:30:00,17.3, 4.2
2024/01/25 12:40:00,16.9, 4.0
2024/01/25 12:50:00,16.6, 3.9
2024/01/25 13:00:00,16.0, 3.2
2024/01/25 13:10:00,16.0, 3.0
2024/01/25 13:20:00,16.3, 3.4
2024/01/25 13:30:00,16.4, 3.4
2024/01/25 13:40:00,16.0, 3.2
2024/01/25 13:50:00,16.1, 2.8
2024/01/25 14:00:00,16.9, 2.6
2024/01/25 14:10:00,17.4, 3.6
2024/01/25 14:20:00,17.5, 4.7
2024/01/25 14:30:00,17.1, 4.5
2024/01/25 14:40:00,16.8, 4.2
2024/01/25 14:50:00,16.1, 4.0
2024/01/25 15:00:00,15.8, 5.0
2024/01/25 15:10:00,15.1, 4.6
2024/01/25 15:20:00, 0.0, 3.4
2024/01/25 15:30:00,---, 2.6
2024/01/25 15:40:00,14.5, 2.9
2024/01/25 15:50:00,15.3, 3.6
2024/01/25 16:00:00,15.6, 3.0
2024/01/25 16:10:00,15.6, 2.6
2024/01/25 16:20:00,15.1, 2.1
2024/01/25 16:30:00,14.9, 2.0
2024/01/25 16:40:00,14.5, 1.6
2024/01/25 16:50:00,14.2, 1.7
2024/01/25 17:00:00,14.0, 1.4
2024/01/25 17:10:00,14.8, 1.3
2024/01/25 17:20:00,14.5, 1.2
2024/01/25 17:30:00,16.2, 0.8
2024/01/25 17:40:00,15.3, 0.9
2024/01/25 17:50:00,---, 0.7
2024/01/25 18:00:00, 0.0, 0.8
2024/01/25 18:10:00, 0.0, 0.8
2024/01/25 18:20:00, 0.0, 0.7
2024/01/25 18:30:00, 0.0, 0.8
2024/01/25 18:40:00, 0.0, 0.7
2024/01/25 18:50:00, 0.0, 0.8
2024/01/25 19:00:00, 0.0, 0.6
2024/01/25 19:10:00, 0.0, 0.4
2024/01/25 19:20:00, 0.0, 0.5
2024/01/25 19:30:00, 0.0, 0.3
2024/01/25 19:40:00, 0.0, 0.3
2024/01/25 19:50:00, 0.0, 0.4
2024/01/25 20:00:00, 0.0, 0.3
2024/01/25 20:10:00, 0.0, 0.4
2024/01/25 20:20:00, 0.0, 0.5
2024/01/25 20:30:00, 0.0, 0.4
2024/01/25 20:40:00, 0.0, 0.3
2024/01/25 20:50:00, 0.0, 0.2
2024/01/25 21:00:00, 0.0, 0.3
2024/01/25 21:10:00, 0.0, 0.3
2024/01/25 21:20:00, 0.0,-0.2
2024/01/25 21:30:00, 0.0, 0.2
2024/01/25 21:40:00, 0.0, 0.4
2024/01/25 21:50:00, 0.0, 0.5
2024/01/25 22:00:00, 0.0, 0.4
2024/01/25 22:10:00, 0.0, 0.1
2024/01/25 22:20:00, 0.0, 0.1
2024/01/25 22:30:00, 0.0,-0.4
2024/01/25 22:40:00, 0.0,-0.2
2024/01/25 22:50:00, 0.0,-0.9
2024/01/25 23:00:00, 0.0,-1.1
2024/01/25 23:10:00, 0.0,-1.2
2024/01/25 23:20:00, 0.0,-1.1
2024/01/25 23:30:00, 0.0,-0.9
2024/01/25 23:40:00, 0.0,-1.2
2024/01/25 23:50:00, 0.0,-1.3
